Regional Weather Roundup
Issued by NWS

Home | Current Version | Previous Version | Text Only | Print | Product List | Glossary Off
Versions: 1 2 3 4 5 6 7 8 9 10 11 12 13 14 15 16 17 18 19 20 21 22 23 24 25 26 27 28 29 30 31 32 33 34 35 36 37 38 39 40 41 42 43 44 45 46 47 48 49 50

234
ASUS43 KIND 221159
RWRIN

WEATHER ROUNDUP FOR INDIANA
NATIONAL WEATHER SERVICE INDIANAPOLIS IN
800 AM EDT FRI MAY 22 2015

NOTE: "FAIR" INDICATES FEW OR NO CLOUDS BELOW 12,000 FEET WITH NO
SIGNIFICANT WEATHER AND/OR OBSTRUCTIONS TO VISIBILITY.

* - STATION DOES NOT REPORT WEATHER SUCH AS PRECIPITATION OR FOG.

+ - STATION NOT QUALITY CONTROLLED BY THE NATIONAL WEATHER SERVICE.
    USE DATA WITH CAUTION...ESPECIALLY DEWPOINT AND RELATIVE
    HUMIDITY OBSERVATIONS.

INZ001>003-010>013-019-020-221300-
NORTHWEST INDIANA

CITY           SKY/WX    TMP DP  RH WIND       PRES   REMARKS

$$

LMZ046-743>745-221300-
SOUTHERN LAKE MICHIGAN

STATION/POSITION TIME  TEMP    WIND        PRES    WAVE
                       AIR SEA DIR/SP/G            HT
                 (UTC) (F)     (DEG/KT/KT) (MB)    (FT)
BURNS HARBOR     1100   51      30/  7/  8 1020.7R
MICHIGAN CITY    1100   50      20/  9/ 10   N/A
5NW MICH CITY    1100   50 51   70/  6/  8   N/A     1

$$

INZ004-005-014>016-021>024-221300-
NORTH CENTRAL INDIANA

CITY           SKY/WX    TMP DP  RH WIND       PRES   REMARKS
ELKHART        SUNNY     54  46  76 E3        30.15R
GOSHEN         SUNNY     52  45  77 NE3       30.14R
6HR MIN TEMP:  44; 6HR MAX TEMP:  52; 6HR PCP: TRACE;

SOUTH BEND     SUNNY     54  45  71 NE6       30.15R
6HR MIN TEMP:  44; 6HR MAX TEMP:  56;


$$

INZ006>009-017-018-025>027-221300-
NORTHEAST INDIANA

CITY           SKY/WX    TMP DP  RH WIND       PRES   REMARKS
ANGOLA *+      SUNNY     52  39  62 CALM      30.13R
FORT WAYNE     MOSUNNY   52  43  71 CALM      30.15R
6HR MIN TEMP:  45; 6HR MAX TEMP:  52;


$$

INZ028-029-035-036-043>045-051>053-221300-
WEST CENTRAL INDIANA

CITY           SKY/WX    TMP DP  RH WIND       PRES   REMARKS
GREENCASTLE +  SUNNY     50  39  66 CALM      30.18S
LAFAYETTE      SUNNY     50  45  83 W5        30.15R
6HR MIN TEMP:  44; 6HR MAX TEMP:  50;

TERRE HAUTE    SUNNY     53  44  71 SW9       30.19R
6HR MIN TEMP:  47; 6HR MAX TEMP:  53;


$$

INZ030>032-037>040-046>048-054>057-064-065-221300-
CENTRAL INDIANA

CITY           SKY/WX    TMP DP  RH WIND       PRES   REMARKS
COLUMBUS       SUNNY     48  45  87 CALM      30.20R
GREENWOOD *+   SUNNY     52  39  62 W9        30.18R
INDIANAPOLIS   MOSUNNY   51  42  71 SW10      30.15R
6HR MIN TEMP:  44; 6HR MAX TEMP:  51;

-EAGLE CREEK   SUNNY     51  43  74 VRB5      30.16R
6HR MIN TEMP:  45; 6HR MAX TEMP:  51;

KOKOMO *+      SUNNY     54  45  71 W6        30.15R
6HR MIN TEMP:  46; 6HR MAX TEMP:  54;

MT COMFORT *+  SUNNY     52  37  58 SW9       30.17R
SHELBYVILLE    SUNNY     52  44  74 SW8       30.18R
6HR MIN TEMP:  45; 6HR MAX TEMP:  52;


$$

INZ033-034-041-042-049-050-058-059-221300-
EAST CENTRAL INDIANA

CITY           SKY/WX    TMP DP  RH WIND       PRES   REMARKS
MUNCIE         MOSUNNY   51  43  74 SW10      30.16R
6HR MIN TEMP:  48; 6HR MAX TEMP:  51;


$$

INZ060-061-067>069-081>083-085>088-221300-
SOUTHWEST INDIANA

CITY           SKY/WX    TMP DP  RH WIND       PRES   REMARKS
EVANSVILLE     SUNNY     50  45  83 SW5       30.26R
6HR MIN TEMP:  45; 6HR MAX TEMP:  50;

HUNTINGBURG *+ SUNNY     48  43  81 SW6       30.26R
6HR MIN TEMP:  43; 6HR MAX TEMP:  48;


$$

INZ062-063-066-070>080-084-089>092-221300-
SOUTH CENTRAL AND SOUTHEAST INDIANA

CITY           SKY/WX    TMP DP  RH WIND       PRES   REMARKS
BLOOMINGTON    MOSUNNY   52  42  69 SW12      30.20R
6HR MIN TEMP:  49; 6HR MAX TEMP:  52;

MADISON *+     SUNNY     46  45  93 S3        30.25R
SEYMOUR +      SUNNY     54  45  71 SW6       30.22R

$$




USA.gov is the U.S. government's official web portal to all federal, state and local government web resources and services.